Regional Weather Roundup
Issued by NWS

Home | Current Version | Previous Version | Graphics & Text | Print | Product List | Glossary On
Versions: 1 2 3 4 5 6 7 8 9 10 11 12 13 14 15 16 17 18 19 20 21 22 23 24 25 26 27 28 29 30 31 32 33 34 35 36 37 38 39 40 41 42 43 44 45 46 47 48 49 50
000
ASUS43 KMKX 241500
RWRWI

WISCONSIN REGIONAL WEATHER ROUNDUP
NATIONAL WEATHER SERVICE MILWAUKEE/SULLIVAN WI
1000 AM CDT FRI MAR 24 2017

NOTE: "FAIR" INDICATES FEW OR NO CLOUDS BELOW 12,000 FEET WITH NO
SIGNIFICANT WEATHER AND/OR OBSTRUCTIONS TO VISIBILITY.

WIZ001-002-006>008-014>016-023>028-241600-
NORTHWEST WISCONSIN

CITY           SKY/WX    TMP DP  RH WIND       PRES   REMARKS
SUPERIOR ARPT  CLOUDY    37  35  91 N5        30.00R WCI  34
ASHLAND        CLOUDY    38  35  89 N9        29.99R WCI  31
HAYWARD        CLOUDY    38  32  79 NE9       29.96R WCI  31
SIREN          PTSUNNY   37  35  93 NE10G16   29.97R WCI  30
CUMBERLAND     CLOUDY    34  32  93 N7        29.94R FOG     WCI  28
RICE LAKE      DRIZZLE   36  35  98 CALM      29.96R
CHETEK         DRZL/FOG  36  36 100 CALM      29.94R VSB 1
LADYSMITH      RAIN      36  35  97 CALM      29.95R
EAU CLAIRE     LGT RAIN  38  38 100 NE6       29.92S FOG     WCI  33
MENOMONIE      DRIZZLE   39  38  97 N8        29.92F WCI  33
NEW RICHMOND   DRIZZLE   36  36 100 N7        29.95R WCI  31
OSCEOLA        CLOUDY    37  37 100 N3        29.99R FOG
$$

WIZ003>005-009-010-017-018-241600-
NORTH CENTRAL WISCONSIN

CITY           SKY/WX    TMP DP  RH WIND       PRES   REMARKS
MANITOWISH WTR CLOUDY    32  32 100 N6        29.92R FOG     WCI  27
ARBOR VITAE    MIX PCPN  34  33  96 CALM      29.90R
WOODRUFF       MIX PCPN  34  33  96 CALM      29.90R
RHINELANDER    LGT RAIN  35  34  96 CALM      29.92R FOG
EAGLE RIVER    LGT RAIN  32  32 100 CALM      29.91R VSB 1
LAND O LAKES   MIX PCPN  33  33  99 N7        29.92R WCI  27
PHILLIPS       DRIZZLE   33  33 100 CALM      29.92R
TOMAHAWK       LGT RAIN  33  32  96 CALM      29.92R
MEDFORD        RAIN      35  34  96 N9        29.89S WCI  27
MERRILL        RAIN      35  35 100 CALM      29.93R
$$

WIZ029-030-035-036-043>047-241600-
CENTRAL WISCONSIN

CITY           SKY/WX    TMP DP  RH WIND       PRES   REMARKS
WAUSAU         CLOUDY    36  35  96 CALM      29.91R FOG
MOSINEE        LGT RAIN  36  36 100 N5        29.93R FOG     WCI  32
MARSHFIELD     CLOUDY    37  37 100 NE6       29.92R FOG     WCI  32
STEVENS POINT  CLOUDY    34  34 100 NE5       29.93R FOG     WCI  30
WAUPACA        CLOUDY    39  36  89 N6        29.92R FOG     WCI  35
WAUTOMA        CLOUDY    42  38  85 NE6       29.91R
WISC RAPIDS    CLOUDY    38  38 100 NE7       29.93R FOG     WCI  33
CAMP DOUGLAS   NOT AVBL
$$

WIZ011>013-019>022-031-037>040-048>050-241600-
NORTHEAST WISCONSIN

CITY           SKY/WX    TMP DP  RH WIND       PRES   REMARKS
ANTIGO         LGT RAIN  33  33 100 N6        29.92R WCI  27
SHAWANO        CLOUDY    37  35  92 CALM      29.93S FOG
OCONTO         CLOUDY    36  35  96 N5        29.93R WCI  32
STURGEON BAY   CLOUDY    37  36  96 N8        29.94R FOG     WCI  31
GREEN BAY      CLOUDY    41  38  89 N6        29.92S FOG
MANITOWOC      NOT AVBL
APPLETON       CLOUDY    39  36  87 NE9       29.89S FOG     WCI  33
CLINTONVILLE   CLOUDY    36  34  93 N5        29.93R FOG     WCI  32
OSHKOSH        PTSUNNY   42  36  79 NE8       29.89F
$$

WIZ032>034-041-042-053>061-241600-
SOUTHWEST WISCONSIN

CITY           SKY/WX    TMP DP  RH WIND       PRES   REMARKS
LA CROSSE      CLOUDY    42  39  89 N6        29.91R FOG
SPARTA         CLOUDY    41  39  93 N3        29.92R
VIROQUA        CLOUDY    44  41  88 CALM      29.87R
BOSCOBEL       CLOUDY    49  41  74 N7        29.87R
PRAIRIE DU CHI CLOUDY    46  39  77 NW5       29.85R
PLATTEVILLE    MOSUNNY   56  50  81 S8        29.85S
$$

WIZ056-057-062-063-064-067-068-241600-
SOUTH CENTRAL WISCONSIN

CITY           SKY/WX    TMP DP  RH WIND       PRES   REMARKS
REEDSBURG      MOSUNNY   46  42  84 NE3       29.86S
BARABOO/DELLS  PTSUNNY   46  38  74 NE3       29.87S
LONE ROCK      NOT AVBL
MINERAL POINT  CLOUDY    54  48  82 S9        29.84S
MADISON        PTSUNNY   51  44  77 S5        29.87R
MIDDLETON      MOSUNNY   50  43  76 E3        29.86F
WATERTOWN      CLOUDY    48  43  84 SE3       29.87R
MONROE         MOSUNNY   54  46  76 S10       29.86S
JANESVILLE     PTSUNNY   55  46  71 SE7       29.88S
$$

WIZ051-052-058>065-066-070>072-241600-
SOUTHEAST WISCONSIN

CITY           SKY/WX    TMP DP  RH WIND       PRES   REMARKS
MILWAUKEE      CLOUDY    52  42  69 CALM      29.89F
WAUKESHA       PTSUNNY   52  41  66 SW8       29.90S
MILWAUKEE/TIMM PTSUNNY   48  37  66 CALM      29.90F
RACINE         CLOUDY    52  42  69 E6        29.91F
KENOSHA        CLOUDY    60  47  61 SW10      29.89F
FOND DU LAC    CLOUDY    47  39  74 SE8       29.88F
SHEBOYGAN      CLOUDY    43  38  82 MISG      29.90R
WEST BEND      PTSUNNY   45  39  81 CALM      29.89R
JUNEAU         PTSUNNY   47  41  81 CALM      29.90R
$$

LSZ147-162-241600-
LAKE SUPERIOR

STATION/POSITION TIME  TEMP    WIND        PRES    WAVE
                       AIR SEA DIR/SP/G            HT/PER
                 (UTC) (F)     (DEG/KT/KT) (MB)    (FT/S)
DEVILS ISLAND    1400   34     260/  7/  8 1016.2R
PORT WING        1440   34     280/  2/  4 1016.3R
SAXON HARBOR     1440   33      40/  1/  3 1015.6R
$$

LMZ867-665-643>646-241600-
LAKE MICHIGAN

STATION/POSITION TIME  TEMP    WIND        PRES    WAVE
                       AIR SEA DIR/SP/G            HT/PER
                 (UTC) (F)     (DEG/KT/KT) (MB)    (FT/S)
CHAMBERS ISLAND  1440   35     290/  2/  5 1013.9R
NORTHPORT PIER   1440   35     310/  7/ 10 1014.2R
SISTER BAY       1251   36        CALM       N/A
KEWAUNEE LAKESHO 1430   40      CALM  /  2 1012.7R
SHEBOYGAN LAKESH 1400   40     170/  7/  7 1012.6S
PORT WASHINGTON  1440   42      CALM  /  1 1013.5S
MILWAUKEE LAKESH 1430   39     150/  3/  3   N/A
KENOSHA   LAKESH 1400   44      10/  3/  4 1013.2
$$

TC  - TEMPERATURE IN CELSIUS
VSB - VISIBILITY IN STATUTE MILES
WCI - WIND CHILL INDEX
HX  - HEAT INDEX




USA.gov is the U.S. government's official web portal to all federal, state and local government web resources and services.